User: anonymous   Login
Location: Caltech
(34.1382°N, 118.1253°W)
Time: 21:53:50
(UTC-07:00)
Language:

Tiros 1 despin weight - Orbit

View from above orbital plane
View from above orbital plane
View from above satellite
View from above satellite

Ground track
Ground track

The orbit data is extracted from the following two-line orbital elements,

1 00115U 60002D   16205.66474740  .00000083  00000-0  37508-4 0  9995
2 00115  48.1668 282.1456 0034141  92.6420 267.8401 14.82835854  1463
Epoch (UTC): 23 July 2016 15:57:14
Eccentricity: 0.0034141
inclination: 48.1668°
perigee height: 596 km
apogee height: 644 km
right ascension of ascending node: 282.1456°
argument of perigee: 92.6420°
revolutions per day: 14.82835854
mean anomaly at epoch: 267.8401°
orbit number at epoch: 146

The dashed part of the orbit path shows where the satellite is in the earth's shadow,  

DLR